Location: Kelowna
(49.8880°N, 119.4960°W)
Time: 21:48:45
(UTC-08:00)

BlueWalker 3 - Visible Passes

Search period start: 04 December 2023 00:00
Search period end: 14 December 2023 00:00
Orbit: 489 x 503 km, 53.2° (Epoch: 04 December)

Date Brightness Start Highest point End Pass type
(mag) Time Alt. Az. Time Alt. Az. Time Alt. Az.
04 Dec 3.9 04:46:59 22° SSE 04:46:59 22° SSE 04:48:35 10° SE visible
05 Dec 4.8 04:25:35 12° SE 04:25:35 12° SE 04:25:55 10° SE visible
13 Dec 4.6 18:21:55 10° S 18:22:03 10° SSE 18:22:03 10° SSE visible
